Location: Charlottesville
(38.0290°N, 78.4770°W)
Time: 08:20:12
(UTC-05:00)

Vanguard 1 - Visible Passes

Search period start: 14 December 2017 00:00
Search period end: 24 December 2017 00:00
Orbit: 650 x 3833 km, 34.2° (Epoch: 13 December)

Date Brightness Start Highest point End Pass type
(mag) Time Alt. Az. Time Alt. Az. Time Alt. Az.
14 Dec 14.5 05:57:19 10° S 06:14:41 27° SE 06:29:53 10° E visible
15 Dec 14.3 06:16:22 10° SSW 06:35:45 35° SE 06:52:15 10° E visible
16 Dec 14.5 04:22:42 10° SSE 04:32:56 15° SE 04:43:06 10° ESE visible
16 Dec 14.1 06:36:02 10° SSW 06:56:53 42° SE 07:14:09 10° E visible
17 Dec 14.4 04:39:11 10° S 04:53:45 21° SE 05:08:08 10° E visible
18 Dec 14.2 04:57:27 10° S 05:14:34 29° SE 05:31:23 10° E visible
19 Dec 14.1 05:16:35 10° SSW 05:35:27 36° SE 05:53:49 10° E visible
20 Dec 14.3 03:23:30 10° SSE 03:33:11 15° SE 03:43:28 10° E visible
20 Dec 13.8 05:36:18 10° SSW 05:56:26 44° SE 06:15:48 10° E visible
21 Dec 14.1 03:40:09 10° S 03:53:46 22° SE 04:08:36 10° E visible
21 Dec 13.6 05:56:27 10° SW 06:17:32 52° SSE 06:37:30 10° E visible
22 Dec 14.0 03:58:30 10° S 04:14:22 29° SE 04:31:58 10° E visible
22 Dec 13.5 06:16:58 10° SW 06:38:47 59° SSE 06:59:01 10° E visible
23 Dec 13.8 04:17:41 10° SSW 04:35:03 36° SE 04:54:31 10° E visible
23 Dec 13.4 06:37:46 10° SW 07:00:10 66° SSE 07:20:27 10° E visible
